Weather History for KAMW - November, 2012

Change the Weather History Date:

Thursday, November 8, 2012

  Actual Average Record
Temperature  
Mean Temperature 45 °F 40 °F  
Max Temperature 60 °F 51 °F 82 °F (1999)
Min Temperature 30 °F 30 °F 14 °F (2003)
Degree Days  
Heating Degree Days 20 25  
Month to date heating degree days 178 182  
Since 1 July heating degree days 830 778  
Cooling Degree Days 0 0  
Month to date cooling degree days 0 0  
Year to date cooling degree days 1067 752  
Moisture  
Dew Point 34 °F    
Average Humidity 67    
Maximum Humidity 92    
Minimum Humidity 42    
Precipitation  
Precipitation 0.00 in 0.08 in 1.42 in (2011)
Month to date precipitation 0.27 0.75  
Sea Level Pressure  
Sea Level Pressure 30.01 in    
Wind  
Wind Speed 8 mph (SE)    
Max Wind Speed 18 mph    
Max Gust Speed 24 mph    
Visibility 10 miles    
Events      
T = Trace of Precipitation, MM = Missing Value Source: NWS Daily Summary

Daily Weather History Graph

Daily Weather History Graph

Search for Another Location

Airport or City:

Trip Planner

Search our weather history database for the weather conditions in past years. The results will help you decide how hot, cold, wet, or windy it might be!

Date:

Astronomy

Nov. 08, 2012 Rise Set
Actual Time 6:56 AM CST 4:59 PM CST
Civil Twilight 6:26 AM CST 5:29 PM CST
Nautical Twilight 5:53 AM CST 6:02 PM CST
Astronomical Twilight 5:20 AM CST 6:35 PM CST
Moon 12:46 AM CST (11/8) 1:46 PM CST (11/8)
Length of Visible Light 11h 02m
Length of Day
10h 03m
Waning Crescent, 32% of the Moon is Illuminated
Nov 8
Waning Crescent
Nov 13
New
Nov 20
First Quarter
Nov 28
Full
Dec 6
Last Quarter

Hourly Weather History & Observations

Time (CST) Temp. Windchill Dew Point Humidity Pressure Visibility Wind Dir Wind Speed Gust Speed Precip Events Conditions
12:53 AM 30.0 °F 26.5 °F 28.0 °F 92% 30.12 in 10.0 mi SE 3.5 mph - N/A   Clear
1:53 AM 30.0 °F 25.2 °F 28.0 °F 92% 30.12 in 10.0 mi SE 4.6 mph - N/A   Clear
2:53 AM 30.9 °F 24.3 °F 28.9 °F 92% 30.10 in 10.0 mi SSE 6.9 mph - N/A   Clear
3:53 AM 30.9 °F 25.2 °F 28.9 °F 92% 30.08 in 10.0 mi SSE 5.8 mph - N/A   Clear
4:53 AM 30.0 °F 24.1 °F 28.0 °F 92% 30.08 in 10.0 mi SE 5.8 mph - N/A   Clear
5:53 AM 30.0 °F 23.2 °F 28.9 °F 96% 30.08 in 9.0 mi SE 6.9 mph - N/A   Clear
6:53 AM 30.9 °F 24.3 °F 28.9 °F 92% 30.07 in 9.0 mi SSE 6.9 mph - N/A   Clear
7:53 AM 32.0 °F 26.4 °F 30.0 °F 92% 30.07 in 9.0 mi SE 5.8 mph - N/A   Clear
8:53 AM 37.0 °F 31.6 °F 34.0 °F 89% 30.07 in 10.0 mi SSE 6.9 mph - N/A   Clear
9:53 AM 45.0 °F 38.5 °F 37.0 °F 74% 30.06 in 10.0 mi South 13.8 mph - N/A   Clear
10:53 AM 50.0 °F - 37.0 °F 61% 30.04 in 10.0 mi SSE 12.7 mph - N/A   Clear
11:53 AM 53.1 °F - 37.9 °F 57% 30.01 in 10.0 mi SSE 16.1 mph 20.7 mph N/A   Clear
12:53 PM 57.0 °F - 37.0 °F 47% 29.97 in 10.0 mi SSE 12.7 mph 19.6 mph N/A   Clear
1:53 PM 57.9 °F - 37.9 °F 47% 29.94 in 10.0 mi SSE 16.1 mph 21.9 mph N/A   Clear
2:53 PM 60.1 °F - 37.0 °F 42% 29.92 in 10.0 mi SSE 15.0 mph 21.9 mph N/A   Clear
3:53 PM 59.0 °F - 37.0 °F 44% 29.93 in 10.0 mi SSE 9.2 mph - N/A   Clear
4:53 PM 53.1 °F - 37.9 °F 57% 29.94 in 10.0 mi SE 6.9 mph - N/A   Clear
5:53 PM 48.9 °F - 37.0 °F 64% 29.95 in 10.0 mi ESE 4.6 mph - N/A   Clear
6:53 PM 46.9 °F - 37.0 °F 68% 29.97 in 10.0 mi ESE 5.8 mph - N/A   Clear
7:53 PM 44.1 °F 41.5 °F 37.0 °F 76% 29.97 in 10.0 mi SE 4.6 mph - N/A   Clear
8:53 PM 44.1 °F 40.8 °F 36.0 °F 73% 29.97 in 10.0 mi SE 5.8 mph - N/A   Clear
9:53 PM 43.0 °F 41.3 °F 36.0 °F 76% 29.96 in 10.0 mi ESE 3.5 mph - N/A   Clear
10:53 PM 42.1 °F 39.2 °F 36.0 °F 79% 29.96 in 10.0 mi ESE 4.6 mph - N/A   Clear
11:53 PM 41.0 °F - 36.0 °F 82% 29.95 in 10.0 mi Calm Calm - N/A   Clear